• In Deutschland
  • Länderverzeichnis
  • Für 7 Tage
  • Wassertemperatur
  • Satellitenkarten
  • Wetterkarte
  • Widgets
  • user-avatar
    Anmelden

    Stündliche Wetter Kevelaer

    Heute, 15 August, Mittwoch

    Zeit Temperatur Niederschläge Wind Luftdruck Luftfeuchtigkeit
    00:00 +17°C° 0 mm 2 m/S 761 mmHg 80%
    01:00 +17°C° 0 mm 2 m/S 761 mmHg 80%
    02:00 +17°C° 0 mm 2 m/S 761 mmHg 80%
    03:00 +17°C° 0 mm 2 m/S 761 mmHg 80%
    04:00 +17°C° 0 mm 3 m/S 761 mmHg 79%
    05:00 +18°C° 0 mm 3 m/S 761 mmHg 79%
    06:00 +18°C° 0 mm 3 m/S 761 mmHg 78%
    07:00 +19°C° 0 mm 3 m/S 762 mmHg 76%
    08:00 +20°C° 0 mm 3 m/S 762 mmHg 74%
    09:00 +21°C° 0 mm 3 m/S 762 mmHg 71%
    10:00 +23°C° 0 mm 4 m/S 762 mmHg 66%
    11:00 +25°C° 0 mm 4 m/S 761 mmHg 61%
    12:00 +27°C° 0 mm 4 m/S 761 mmHg 56%
    13:00 +27°C° 0 mm 4 m/S 761 mmHg 56%
    14:00 +27°C° 0 mm 4 m/S 761 mmHg 56%
    15:00 +27°C° 0 mm 4 m/S 761 mmHg 56%
    16:00 +26°C° 0 mm 3 m/S 761 mmHg 59%
    17:00 +25°C° 0 mm 3 m/S 761 mmHg 62%
    18:00 +25°C° 0 mm 3 m/S 761 mmHg 65%
    19:00 +23°C° 0 mm 2 m/S 761 mmHg 70%
    20:00 +21°C° 0 mm 2 m/S 761 mmHg 75%
    21:00 +20°C° 0 mm 2 m/S 762 mmHg 81%
    22:00 +19°C° 0 mm 2 m/S 761 mmHg 83%
    23:00 +19°C° 0 mm 2 m/S 761 mmHg 85%

    Morgen, 16 August, Donnerstag

    Zeit Temperatur Niederschläge Wind Luftdruck Luftfeuchtigkeit
    00:00 +18°C° 0 mm 2 m/S 761 mmHg 87%
    01:00 +18°C° 0 mm 2 m/S 761 mmHg 88%
    02:00 +18°C° 0 mm 2 m/S 761 mmHg 89%
    03:00 +17°C° 0 mm 2 m/S 760 mmHg 89%
    04:00 +18°C° 0 mm 2 m/S 760 mmHg 87%
    05:00 +18°C° 0 mm 3 m/S 760 mmHg 84%
    06:00 +19°C° 0 mm 3 m/S 760 mmHg 81%
    07:00 +20°C° 0 mm 3 m/S 760 mmHg 73%
    08:00 +22°C° 0 mm 3 m/S 760 mmHg 65%
    09:00 +25°C° 0 mm 4 m/S 760 mmHg 57%
    10:00 +27°C° 0 mm 4 m/S 759 mmHg 52%
    11:00 +28°C° 0 mm 4 m/S 759 mmHg 48%
    12:00 +29°C° 0 mm 4 m/S 758 mmHg 43%
    13:00 +30°C° 0 mm 4 m/S 758 mmHg 42%
    14:00 +30°C° 0 mm 4 m/S 758 mmHg 41%
    15:00 +30°C° 0 mm 4 m/S 757 mmHg 40%
    16:00 +29°C° 0 mm 3 m/S 757 mmHg 45%
    17:00 +28°C° 0 mm 3 m/S 757 mmHg 50%
    18:00 +27°C° 0 mm 3 m/S 757 mmHg 55%
    19:00 +25°C° 0,5 mm 3 m/S 758 mmHg 64%
    20:00 +22°C° 0,5 mm 3 m/S 758 mmHg 73%
    21:00 +20°C° 0,5 mm 3 m/S 758 mmHg 82%
    22:00 +20°C° 1,1 mm 2 m/S 758 mmHg 85%
    23:00 +19°C° 1,1 mm 2 m/S 758 mmHg 87%

    übermorgen, 17 August, Freitag

    Zeit Temperatur Niederschläge Wind Luftdruck Luftfeuchtigkeit
    00:00 +19°C° 1,1 mm 2 m/S 759 mmHg 90%
    01:00 +18°C° 1,3 mm 2 m/S 759 mmHg 91%
    02:00 +18°C° 1,3 mm 2 m/S 759 mmHg 92%
    03:00 +19°C° 1,3 mm 1 m/S 759 mmHg 93%
    04:00 +19°C° 0,8 mm 1 m/S 759 mmHg 92%
    05:00 +19°C° 0,8 mm 1 m/S 759 mmHg 91%
    06:00 +19°C° 0,8 mm 1 m/S 759 mmHg 90%
    07:00 +19°C° 0,2 mm 2 m/S 760 mmHg 83%
    08:00 +20°C° 0,2 mm 2 m/S 760 mmHg 76%
    09:00 +21°C° 0,2 mm 2 m/S 761 mmHg 69%
    10:00 +23°C° 0 mm 2 m/S 761 mmHg 62%
    11:00 +24°C° 0 mm 2 m/S 761 mmHg 55%
    12:00 +25°C° 0 mm 3 m/S 761 mmHg 48%
    13:00 +24°C° 0 mm 3 m/S 761 mmHg 49%
    14:00 +24°C° 0 mm 3 m/S 761 mmHg 49%
    15:00 +24°C° 0 mm 3 m/S 762 mmHg 49%
    16:00 +22°C° 0 mm 3 m/S 762 mmHg 51%
    17:00 +23°C° 0 mm 2 m/S 762 mmHg 53%
    18:00 +21°C° 0 mm 2 m/S 762 mmHg 55%
    19:00 +20°C° 0 mm 2 m/S 763 mmHg 58%
    20:00 +19°C° 0 mm 2 m/S 763 mmHg 60%
    21:00 +18°C° 0 mm 2 m/S 763 mmHg 63%
    22:00 +17°C° 0 mm 2 m/S 763 mmHg 65%
    23:00 +16°C° 0 mm 2 m/S 764 mmHg 67%

    18 August, Samstag

    Zeit Temperatur Niederschläge Wind Luftdruck Luftfeuchtigkeit
    00:00 +16°C° 0 mm 1 m/S 764 mmHg 69%
    01:00 +15°C° 0 mm 2 m/S 764 mmHg 71%
    02:00 +15°C° 0 mm 2 m/S 764 mmHg 73%
    03:00 +15°C° 0 mm 2 m/S 764 mmHg 74%
    04:00 +15°C° 0 mm 2 m/S 764 mmHg 74%
    05:00 +16°C° 0 mm 3 m/S 764 mmHg 74%
    06:00 +16°C° 0 mm 3 m/S 764 mmHg 74%
    07:00 +18°C° 0 mm 3 m/S 764 mmHg 69%
    08:00 +19°C° 0 mm 4 m/S 764 mmHg 63%
    09:00 +21°C° 0 mm 4 m/S 764 mmHg 57%
    10:00 +22°C° 0 mm 4 m/S 764 mmHg 54%
    11:00 +23°C° 0 mm 4 m/S 764 mmHg 50%
    12:00 +25°C° 0 mm 4 m/S 764 mmHg 47%
    13:00 +25°C° 0 mm 4 m/S 764 mmHg 49%
    14:00 +25°C° 0 mm 5 m/S 764 mmHg 51%
    15:00 +25°C° 0 mm 5 m/S 763 mmHg 53%
    16:00 +23°C° 0 mm 4 m/S 764 mmHg 58%
    17:00 +22°C° 0 mm 3 m/S 764 mmHg 62%
    18:00 +21°C° 0 mm 3 m/S 764 mmHg 66%
    19:00 +21°C° 0 mm 3 m/S 764 mmHg 69%
    20:00 +20°C° 0 mm 2 m/S 765 mmHg 72%
    21:00 +19°C° 0 mm 2 m/S 765 mmHg 75%
    22:00 +19°C° 0 mm 2 m/S 765 mmHg 76%
    23:00 +18°C° 0 mm 2 m/S 765 mmHg 78%

    19 August, Sonntag

    Zeit Temperatur Niederschläge Wind Luftdruck Luftfeuchtigkeit
    00:00 +18°C° 0 mm 2 m/S 765 mmHg 79%
    01:00 +18°C° 0 mm 2 m/S 765 mmHg 81%
    02:00 +17°C° 0 mm 2 m/S 765 mmHg 83%
    03:00 +17°C° 0 mm 2 m/S 765 mmHg 85%
    04:00 +17°C° 0 mm 2 m/S 765 mmHg 84%
    05:00 +17°C° 0 mm 2 m/S 765 mmHg 83%
    06:00 +17°C° 0 mm 2 m/S 765 mmHg 82%
    07:00 +19°C° 0 mm 2 m/S 765 mmHg 76%
    08:00 +21°C° 0 mm 2 m/S 765 mmHg 69%
    09:00 +23°C° 0 mm 2 m/S 765 mmHg 63%
    10:00 +24°C° 0 mm 2 m/S 765 mmHg 59%
    11:00 +25°C° 0 mm 2 m/S 765 mmHg 56%
    12:00 +26°C° 0 mm 2 m/S 765 mmHg 52%
    13:00 +27°C° 0 mm 2 m/S 765 mmHg 51%
    14:00 +27°C° 0 mm 2 m/S 764 mmHg 50%
    15:00 +27°C° 0 mm 3 m/S 764 mmHg 50%
    16:00 +27°C° 0 mm 2 m/S 764 mmHg 54%
    17:00 +26°C° 0 mm 2 m/S 764 mmHg 58%
    18:00 +25°C° 0 mm 2 m/S 764 mmHg 62%
    19:00 +24°C° 0 mm 2 m/S 764 mmHg 66%
    20:00 +23°C° 0 mm 2 m/S 764 mmHg 70%
    21:00 +21°C° 0 mm 2 m/S 765 mmHg 74%
    22:00 +21°C° 0 mm 2 m/S 764 mmHg 77%
    23:00 +21°C° 0 mm 2 m/S 764 mmHg 81%

    20 August, Montag

    Zeit Temperatur Niederschläge Wind Luftdruck Luftfeuchtigkeit
    00:00 +20°C° 0 mm 2 m/S 764 mmHg 84%
    01:00 +20°C° 0 mm 2 m/S 764 mmHg 86%
    02:00 +19°C° 0 mm 2 m/S 764 mmHg 88%
    03:00 +19°C° 0 mm 2 m/S 763 mmHg 90%
    04:00 +19°C° 0 mm 3 m/S 763 mmHg 89%
    05:00 +19°C° 0 mm 3 m/S 764 mmHg 88%
    06:00 +19°C° 0 mm 3 m/S 764 mmHg 87%
    07:00 +20°C° 0 mm 3 m/S 764 mmHg 84%
    08:00 +20°C° 0 mm 3 m/S 764 mmHg 81%
    09:00 +21°C° 0 mm 3 m/S 764 mmHg 79%
    10:00 +22°C° 0 mm 3 m/S 764 mmHg 76%
    11:00 +22°C° 0 mm 3 m/S 764 mmHg 73%
    12:00 +24°C° 0 mm 3 m/S 764 mmHg 70%
    13:00 +24°C° 0,1 mm 3 m/S 763 mmHg 69%
    14:00 +24°C° 0,1 mm 3 m/S 763 mmHg 68%
    15:00 +25°C° 0,1 mm 3 m/S 763 mmHg 67%
    16:00 +24°C° 0 mm 3 m/S 763 mmHg 69%
    17:00 +24°C° 0 mm 2 m/S 763 mmHg 71%
    18:00 +24°C° 0 mm 2 m/S 763 mmHg 73%
    19:00 +23°C° 0 mm 2 m/S 763 mmHg 76%
    20:00 +21°C° 0 mm 2 m/S 764 mmHg 80%
    21:00 +21°C° 0 mm 1 m/S 764 mmHg 83%
    22:00 +21°C° 0 mm 1 m/S 764 mmHg 84%
    23:00 +20°C° 0 mm 1 m/S 764 mmHg 86%
    Mehr zeigen